{"data":{"norad_id":67044,"epoch":"2026-05-25T04:35:50.229312Z","epoch_age_seconds":58366,"freshness":"FRESH","line1":"1 67044U 25294Q   26145.19155358  .00022711  00000+0  83231-3 0  9990","line2":"2 67044  43.0124 325.6495 0000803 285.4116  74.6648 15.27578990 26500","mean_motion":15.2757899,"eccentricity":8.03e-5,"inclination_deg":43.0124,"raan_deg":325.6495,"arg_perigee_deg":285.4116,"mean_anomaly_deg":74.6648,"bstar":0.00083231,"rev_number":2650,"period_min":94.266811040652,"perigee_km":482.5011668583,"apogee_km":483.60307383103,"semimajor_km":6861.1891203447,"source":"CELESTRAK","updated_at":"2026-05-25T13:38:21.439188Z"}}